Regional Weather Roundup
Issued by NWS

Home | Current Version | Previous Version | Graphics & Text | Print | Product List | Glossary On
Versions: 1 2 3 4 5 6 7 8 9 10 11 12 13 14 15 16 17 18 19 20 21 22 23 24 25 26 27 28 29 30 31 32 33 34 35 36 37 38 39 40 41 42 43 44 45 46 47 48 49 50
000
ASUS43 KMKX 071711
RWRWI

WISCONSIN REGIONAL WEATHER ROUNDUP
NATIONAL WEATHER SERVICE MILWAUKEE/SULLIVAN WI
1100 AM CST WED DEC 07 2016

NOTE: "FAIR" INDICATES FEW OR NO CLOUDS BELOW 12,000 FEET WITH NO
SIGNIFICANT WEATHER AND/OR OBSTRUCTIONS TO VISIBILITY.

WIZ001-002-006>008-014>016-023>028-071800-
NORTHWEST WISCONSIN

CITY           SKY/WX    TMP DP  RH WIND       PRES   REMARKS
SUPERIOR ARPT  CLOUDY    20  11  67 W20G28    29.85R WCI   5
ASHLAND        FLURRIES  20  11  68 W24G31    29.81R WCI   3
HAYWARD        LGT SNOW  17   9  70 SW10G22   29.86R WCI   5
SIREN          LGT SNOW  19  10  69 W21G26    29.93S WCI   3
CUMBERLAND     FLURRIES  18  10  73 W22G30    29.92S WCI   0
RICE LAKE      CLOUDY    19  11  71 W20       29.96R WCI   3
CHETEK         FLURRIES  19  12  72 W7G23     29.95R WCI  10
LADYSMITH      LGT SNOW  19  13  76 SW16G24   29.90S WCI   4
EAU CLAIRE     LGT SNOW  18  11  74 W23G29    29.98R WCI   0
MENOMONIE      FLURRIES  20  13  74 SW17G25   29.99S WCI   5
NEW RICHMOND   FLURRIES  21  11  64 W23G31    29.98F WCI   4
OSCEOLA        FLURRIES  20  12  70 W18G28    30.03S WCI   5
$$

WIZ003>005-009-010-017-018-071800-
NORTH CENTRAL WISCONSIN

CITY           SKY/WX    TMP DP  RH WIND       PRES   REMARKS
MANITOWISH WTR LGT SNOW  16  10  77 W15G29    29.76F WCI   1
ARBOR VITAE    LGT SNOW  19  13  76 W20G29    29.78S WCI   3
WOODRUFF       LGT SNOW  19  13  76 W20G29    29.78S WCI   3
RHINELANDER    LGT SNOW  17  12  80 W22G32    29.80R WCI   0
EAGLE RIVER    LGT SNOW  17  10  74 W18G26    29.76R WCI   1
LAND O LAKES   LGT SNOW  18  11  73 W16G23    29.76S WCI   3
PHILLIPS       LGT SNOW  16  10  78 W15G28    29.82S WCI   1
TOMAHAWK       LGT SNOW  17  10  76 SW9G20    29.85R WCI   5
MEDFORD        LGT SNOW  16  10  78 W14G28    29.88R WCI   2
MERRILL        LGT SNOW  18  12  77 W16G28    29.88R WCI   3
$$

WIZ029-030-035-036-043>047-071800-
CENTRAL WISCONSIN

CITY           SKY/WX    TMP DP  RH WIND       PRES   REMARKS
WAUSAU         FLURRIES  19  12  74 W16G24    29.89S WCI   4
MOSINEE        FLURRIES  18  14  86 W18G25    29.92R WCI   2
MARSHFIELD     CLOUDY    19  11  70 W18G26    29.91S WCI   4
STEVENS POINT  PTSUNNY   19  11  71 W15G24    29.93F WCI   5
WAUPACA        MOSUNNY   26  15  65 SW22      29.95F WCI  11
WAUTOMA        FLURRIES  22  14  71 W20       29.98F WCI   7
WISC RAPIDS    PTSUNNY   21  13  71 W13G22    29.97S WCI   9
CAMP DOUGLAS   FLURRIES  19  12  73 W15       30.02R WCI   5
$$

WIZ011>013-019>022-031-037>040-048>050-071800-
NORTHEAST WISCONSIN

CITY           SKY/WX    TMP DP  RH WIND       PRES   REMARKS
ANTIGO         LGT SNOW  17  11  79 W23G30    29.84S WCI  -1
SHAWANO        CLOUDY    25  15  65 W15G21    29.91F WCI  12
OCONTO         CLOUDY    25  13  62 W20G26    29.90S WCI  11
STURGEON BAY   CLOUDY    24  16  71 SW23      29.88F WCI   9
GREEN BAY      FLURRIES  25  15  66 W21G31    29.92F WCI  11
MANITOWOC      MOSUNNY   24  16  71 W24G32    29.93F WCI   8
APPLETON       PTSUNNY   21  12  68 W20       29.94R WCI   6
CLINTONVILLE   CLOUDY    23  14  68 W15G29    29.92F WCI  10
OSHKOSH        PTSUNNY   23  14  68 W15G24    29.97S WCI  10
$$

WIZ032>034-041-042-053>061-071800-
SOUTHWEST WISCONSIN

CITY           SKY/WX    TMP DP  RH WIND       PRES   REMARKS
LA CROSSE      MOSUNNY   22  12  65 SW13      30.08S WCI  10
SPARTA         CLOUDY    19  13  74 SW8G17    30.05S WCI   9
VIROQUA        CLOUDY    17  11  78 W12       30.05R WCI   4
BOSCOBEL       PTSUNNY   21  11  65 W10G18    30.11F WCI  10
PRAIRIE DU CHI MOSUNNY   19  10  66 W13       30.13R WCI   6
PLATTEVILLE    PTSUNNY   20  14  77 W16       30.10S WCI   6
$$

WIZ056-057-062-063-064-067-068-071800-
SOUTH CENTRAL WISCONSIN

CITY           SKY/WX    TMP DP  RH WIND       PRES   REMARKS
REEDSBURG      MOSUNNY   20  12  71 SW14      30.04S WCI   7
BARABOO/DELLS  PTSUNNY   20  12  70 W14G21    30.02F WCI   7
LONE ROCK      MOSUNNY   20  11  68 W17G24    30.08F WCI   5
MINERAL POINT  MOSUNNY   19  14  79 W18       30.05F WCI   4
MADISON        CLOUDY    20  12  71 W9        30.04S WCI   9
MIDDLETON      NOT AVBL
WATERTOWN      SUNNY     22  15  75 W13       30.03S WCI  10
MONROE         MOSUNNY   21  14  73 W16       30.05F WCI   7
JANESVILLE     PTSUNNY   23  16  74 W15G21    30.07S WCI  10
$$

WIZ051-052-058>065-066-070>072-071800-
SOUTHEAST WISCONSIN

CITY           SKY/WX    TMP DP  RH WIND       PRES   REMARKS
MILWAUKEE      PTSUNNY   28  15  58 W14G22    30.02S WCI  17
WAUKESHA       SUNNY     23  16  74 SW14      30.03R WCI  11
MILWAUKEE/TIMM SUNNY     27  14  59 W15G24    30.02S WCI  15
RACINE         PTSUNNY   26  16  65 W17G24    30.05S WCI  13
BURLINGTON     MOSUNNY   25  17  74 W14G21    30.04F WCI  13
KENOSHA        CLOUDY    26  18  71 W21       30.04F WCI  12
FOND DU LAC    PTSUNNY   22  12  65 SW17G23   29.99S WCI   8
SHEBOYGAN      SUNNY     24  15  68 W23       29.96S WCI   9
WEST BEND      NOT AVBL
JUNEAU         PTSUNNY   19  13  76 SW20      30.03S WCI   4
$$

LSZ147-162-071800-
LAKE SUPERIOR

STATION/POSITION TIME  TEMP    WIND        PRES    WAVE
                       AIR SEA DIR/SP/G            HT/PER
                 (UTC) (F)     (DEG/KT/KT) (MB)    (FT/S)
DEVILS ISLAND    1700   24     250/ 32/ 38 1007.7R
PORT WING        1640   21     230/ 15/ 24 1009.8R
SAXON HARBOR     1630   21     230/ 13/ 22 1009.1R
$$

LMZ867-665-643>646-071800-
LAKE MICHIGAN

STATION/POSITION TIME  TEMP    WIND        PRES    WAVE
                       AIR SEA DIR/SP/G            HT/PER
                 (UTC) (F)     (DEG/KT/KT) (MB)    (FT/S)
CHAMBERS ISLAND  1640   24     230/ 12/ 20 1010.8S
NORTHPORT PIER   1645   26     250/  6/ 22 1010.8S
SISTER BAY       1639   27     280/ 24/ 30   N/A
ALGOMA LAKESHORE 1436          270/ 18/ 26   N/A
KEWAUNEE LAKESHO 1642   24     270/ 16/ 20 1012.6S
SHEBOYGAN LAKESH 1700   24     260/ 22/ 25 1015.6F
PORT WASHINGTON  1640   26     270/ 10/ 22 1016.3S
MILWAUKEE LAKESH 1650   27     270/ 11/ 13   N/A
KENOSHA   LAKESH 1700   26     250/ 17/ 23 1017.6
$$

TC  - TEMPERATURE IN CELSIUS
VSB - VISIBILITY IN STATUTE MILES
WCI - WIND CHILL INDEX
HX  - HEAT INDEX





USA.gov is the U.S. government's official web portal to all federal, state and local government web resources and services.